sat.trackr.live / text

‹ back to catalog

STARLINK-4148

NORAD 53293 · 2022-086BD

PAYLOAD ACTIVE UNKNOWN

§ Identity

Operator
Country
US
Launch date
2022-07-24
Launch site
AFETR
Launch vehicle
Mass (kg)
RCS (m²)

Purposes: comms

External: N2YO · Heavens-Above · Gunter

§ Orbital elements

Epoch: 2026-09-20T00:37:32.078208Z

Period
93.85 min
Inclination
53.1602°
Eccentricity
0.0001209
Mean motion
15.34391847 rev/d
Perigee alt
461.9 km
Apogee alt
463.6 km
Semi-major
6,840.9 km
B*
1.4252e-4
RAAN
7.6341°
Arg perigee
60.9490°
Mean anomaly
299.1634°
Rev number
23,085

§ Raw data

STARLINK-41481 53293U 22086BD  26263.02606572  .00004441  00000+0  14252-3 0  99962 53293  53.1602   7.6341 0001209  60.9490 299.1634 15.34391847230859

JSON: /api/v1/satellites/53293 · /tle

For live sub-satellite position, see the globe view (requires WebGL).

§ Visibility from observer

Set your observer location to see the next 7 days of passes ≥ 10°. The values pass through the URL so the page stays shareable.

No JS? Fill the form by hand. The geolocation button needs JavaScript.